Regional Weather Roundup
Issued by NWS Charleston, WV

Home | Current Version | Previous Version | Graphics & Text | Print | Product List | Glossary On
Versions: 1 2 3 4 5 6 7 8 9 10 11 12 13 14 15 16 17 18 19 20 21 22 23 24 25 26 27 28 29 30 31 32 33 34 35 36 37 38 39 40 41 42 43 44 45 46 47 48 49 50
000
ASUS41 KRLX 110710
RWRRLX
West Virginia Regional Weather Roundup
National Weather Service Charleston WV
200 AM EST SUN DEC 11 2016

Note: "fair" indicates few or no clouds below 12,000 feet with no
significant weather and/or obstructions to visibility.

WVZ003-110800-
Northern Panhandle of West Virginia

CITY           SKY/WX    TMP DP  RH WIND       PRES   REMARKS
WHEELING       CLOUDY    23  15  71 SE3       30.41R
$$

WVZ009-110800-
Northwest West Virginia

CITY           SKY/WX    TMP DP  RH WIND       PRES   REMARKS
PARKERSBURG    CLOUDY    27  14  58 SE3       30.44F
$$

WVZ006-110800-
Western West Virginia

CITY           SKY/WX    TMP DP  RH WIND       PRES   REMARKS
HUNTINGTON     CLOUDY    27  17  66 E5        30.38F
$$

WVZ015-110800-
West Central West Virginia

CITY           SKY/WX    TMP DP  RH WIND       PRES   REMARKS
CHARLESTON     CLOUDY    27  17  66 CALM      30.40S
$$

WVZ022-031-110800-
North Central West Virginia

CITY           SKY/WX    TMP DP  RH WIND       PRES   REMARKS
CLARKSBURG     CLOUDY    23  15  71 CALM      30.42S
MORGANTOWN     CLOUDY    23  13  65 CALM      30.42F
$$

WVZ025-035-042-045-110800-
Southern West Virginia

CITY           SKY/WX    TMP DP  RH WIND       PRES   REMARKS
BECKLEY        CLOUDY    26   9  48 SE6       30.32S
LOGAN            N/A     28  16  59 CALM      30.34F
BLUEFIELD      CLOUDY    28   5  37 S9G18     30.30F
LEWISBURG      CLOUDY    21  15  75 NE7       30.35F
$$

WVZ047-110800-
Northern Mountains of West Virginia

CITY           SKY/WX    TMP DP  RH WIND       PRES   REMARKS
ELKINS         CLOUDY    19  12  74 CALM      30.39R
$$

WVZ052-110800-
Eastern Panhandle of West Virginia

CITY           SKY/WX    TMP DP  RH WIND       PRES   REMARKS
MARTINSBURG    CLOUDY    24  14  65 SW3       30.48F
PETERSBURG     CLOUDY    23  17  79 E3        30.46S
$$



USA.gov is the U.S. government's official web portal to all federal, state and local government web resources and services.